FW1967 Weather Reports


time (UTC)temp
F
wind
direction
speed
knots
gust
knots
rain 1hr
in
rain 24hr
in
rain mn
in
humidity
%
barometer
mb
20260506024600 60 275 0.0 0.0 0.00 0.00 0.00 61 1015.6
20260506023112 61 275 0.0 0.0 0.00 0.00 0.00 61 1015.4
20260506021557 60 275 0.0 0.0 0.00 0.00 0.00 61 1015.5
20260506020056 60 275 0.0 0.0 0.00 0.00 0.00 60 1015.5
20260506014555 60 275 0.9 3.5 0.00 0.00 0.00 60 1015.5
20260506013054 60 279 0.0 3.5 0.00 0.00 0.00 60 1015.4
20260506011614 60 262 0.9 3.5 0.00 0.00 0.00 59 1015.4
20260506010059 60 262 0.0 5.2 0.00 0.00 0.00 59 1015.4
20260506004608 61 253 0.9 3.5 0.00 0.00 0.00 58 1015.6
20260506004606 61 253 0.0 3.5 0.00 0.00 0.00 58 1015.6
20260506003102 62 253 0.0 3.5 0.00 0.00 0.00 56 1015.6
20260506001547 62 252 0.0 4.3 0.00 0.00 0.00 56 1015.6
20260506000041 61 248 0.0 3.5 0.00 0.00 0.00 58 1015.8
20260505234558 61 265 1.7 5.2 0.00 0.00 0.00 58 1016.0
20260505233040 61 279 1.7 6.1 0.00 0.00 0.00 58 1016.0
20260505231538 62 252 1.7 7.0 0.00 0.00 0.00 56 1015.9
20260505230041 62 252 2.6 6.1 0.00 0.00 0.00 55 1015.9
20260505224539 61 263 2.6 7.0 0.00 0.00 0.00 56 1015.9
20260505223034 62 267 2.6 6.1 0.00 0.00 0.00 55 1016.0
20260505221531 61 251 1.7 7.0 0.00 0.00 0.00 56 1016.0
20260505220035 62 260 2.6 6.1 0.00 0.00 0.00 53 1016.2
20260505214532 63 258 0.0 2.6 0.00 0.00 0.00 55 1016.3
20260505213026 63 253 5.2 7.8 0.00 0.00 0.00 52 1016.3
20260505211523 63 228 0.9 1.7 0.00 0.00 0.00 53 1016.4
20260505210019 62 266 0.9 7.0 0.00 0.00 0.00 57 1016.5
20260505204519 60 256 0.0 6.1 0.00 0.00 0.00 59 1016.5
20260505203018 59 254 0.0 3.5 0.00 0.00 0.00 60 1016.6
20260505201523 60 283 0.0 2.6 0.00 0.00 0.00 59 1016.6
20260505200015 59 295 0.0 4.3 0.00 0.00 0.00 60 1016.6
20260505194529 59 299 0.0 0.9 0.00 0.00 0.00 62 1016.6
20260505193031 58 240 0.0 1.7 0.00 0.00 0.00 62 1016.7
20260505191514 58 215 0.0 1.7 0.00 0.00 0.00 61 1016.8
20260505190043 58 205 0.0 0.9 0.00 0.00 0.00 63 1016.8
20260505184543 58 205 0.0 0.9 0.00 0.00 0.00 62 1016.8
20260505183014 57 205 0.0 0.0 0.00 0.00 0.00 64 1016.7
20260505181510 56 205 0.0 0.0 0.00 0.00 0.00 64 1016.6
20260505180008 56 205 0.0 1.7 0.00 0.00 0.00 66 1016.6
20260505174510 55 159 0.0 2.6 0.00 0.00 0.00 67 1016.5
20260505173005 55 272 0.0 0.0 0.00 0.00 0.00 66 1016.4
20260505171505 55 273 0.0 0.0 0.00 0.00 0.00 67 1016.3
20260505170004 55 271 0.0 0.0 0.00 0.00 0.00 67 1016.2
20260505164502 55 271 0.0 1.7 0.00 0.00 0.00 67 1016.1
20260505163000 54 184 0.0 0.9 0.00 0.00 0.00 70 1016.1
20260505161604 54 173 0.0 0.9 0.00 0.00 0.00 71 1016.1
20260505153058 53 258 0.0 1.7 0.00 0.00 0.00 75 1016.1
20260505151553 52 261 0.0 2.6 0.00 0.00 0.00 75 1016.1
20260505124601 53 265 0.9 3.5 0.00 0.00 0.00 69 1015.1
20260505123050 53 269 0.0 2.6 0.00 0.00 0.00 68 1015.1
20260505121527 53 271 0.0 0.9 0.00 0.00 0.00 68 1014.9
20260505120126 53 262 0.0 0.0 0.00 0.00 0.00 68 1014.9
20260505114613 53 262 0.0 2.6 0.00 0.00 0.00 68 1014.9
20260505113054 53 263 0.0 3.5 0.00 0.00 0.00 67 1014.8
20260505111604 53 266 0.0 6.1 0.00 0.00 0.00 67 1014.8
20260505101541 54 243 0.0 1.7 0.00 0.00 0.00 66 1014.3
20260505100038 54 242 0.9 3.5 0.00 0.00 0.00 66 1014.4
20260505094539 54 271 0.0 2.6 0.00 0.00 0.00 66 1014.3
20260505093037 54 276 0.0 1.7 0.00 0.00 0.00 66 1014.3
20260505091535 54 284 1.7 5.2 0.00 0.00 0.00 66 1014.1
20260505090033 55 192 0.0 3.5 0.00 0.00 0.00 65 1013.9
20260505084527 55 277 0.9 4.3 0.00 0.00 0.00 65 1013.7
20260505083030 55 285 0.9 3.5 0.00 0.00 0.00 64 1013.7
20260505081526 55 249 1.7 7.0 0.00 0.00 0.00 64 1013.6
20260505080030 56 279 1.7 7.8 0.00 0.00 0.00 64 1013.4
20260505074516 57 193 0.9 5.2 0.00 0.00 0.00 63 1013.3
20260505073016 57 255 0.9 4.3 0.00 0.00 0.00 62 1013.1
20260505071507 58 279 0.9 2.6 0.00 0.00 0.00 61 1012.9
20260505070005 59 282 0.9 3.5 0.00 0.00 0.00 60 1012.8
20260505064500 60 274 1.7 7.0 0.00 0.00 0.00 58 1012.5
20260505063058 61 272 0.9 3.5 0.00 0.00 0.00 58 1012.4
20260505061545 62 256 1.7 4.3 0.00 0.00 0.00 57 1012.3
20260505060044 62 278 0.9 5.2 0.00 0.00 0.00 57 1012.2
20260505054548 63 285 2.6 8.7 0.00 0.00 0.00 58 1012.1
20260505053039 63 277 2.6 7.0 0.00 0.00 0.00 58 1011.9
20260505051537 64 260 2.6 7.0 0.00 0.00 0.00 58 1011.8
20260505041534 65 257 0.9 3.5 0.00 0.00 0.00 58 1011.1
20260505040030 65 248 0.9 3.5 0.00 0.00 0.00 57 1011.0
20260505034533 65 248 1.7 4.3 0.00 0.00 0.00 57 1010.9
20260505033031 66 253 0.0 2.6 0.00 0.00 0.00 56 1010.6
20260505031504 66 253 1.7 3.5 0.00 0.00 0.00 55 1010.5
20260505030002 67 252 1.7 4.3 0.00 0.00 0.00 53 1010.4